Retour au catalogue

STARLINK-34762

ActifCommunicationsVLEO
NORAD 65473·PAYLOAD·🇺🇸 United States

Lancé Sep 3, 2025 depuis Cape Canaveral Space Force Station

Loading…

Prochains Passages (prochaines 24 heures)

TLE

FraisSource: CelesTrak SupGP

Époque: Sep 15, 2026, 03:28 UTC

1 65473C 25195R   26258.14493056 -.00017550  00000+0 -51858-3 0  2589
2 65473  53.1578  94.4386 0001133  84.4745 249.1821 15.34395915    13

Suivez STARLINK-34762 en temps réel avec AllMySat

Download on the App Store